Tracking 17267 objects as of 30-August-2015
HD Live streaming from Space Station

NSS 10 (AMC-12)

Track NSS 10 (AMC-12) now!
NSS 10 (AMC-12) is classified as:


NORAD ID: 28526
Int'l Code: 2005-003A
Perigee: 35,779.8 km
Apogee: 35,807.2 km
Inclination: 0.1 °
Period: 1,436.1 minutes
Semi major axis: 42164 km
RCS: 8.2875 m2 (large)
Launch date: February 3, 2005
Source: SOCIETE EUROPEENNE DES SATELLITES (SES)

72 C-band transponders.
Your satellite tracking list
Your tracking list is empty





NASA's NSSDC Master Catalog

Two Line Element Set (TLE):
1 28526U 05003A   15241.27655494 -.00000273  00000-0  00000+0 0  9998
2 28526 000.0602 295.5997 0003255 233.9510 229.7593 01.00272583 38766

Source of the keplerian elements: AFSPC

N2YO: 288